Regional Weather Roundup
Issued by NWS

Home | Current Version | Previous Version | Graphics & Text | Print | Product List | Glossary On
Versions: 1 2 3 4 5 6 7 8 9 10 11 12 13 14 15 16 17 18 19 20 21 22 23 24 25 26 27 28 29 30 31 32 33 34 35 36 37 38 39 40 41 42 43 44 45 46 47 48 49 50
000
ASUS43 KLOT 051821
RWRIL

ILLINOIS REGIONAL WEATHER ROUNDUP
NATIONAL WEATHER SERVICE CHICAGO/ROMEOVILLE IL
100 PM CDT SUN JUL 05 2015

NOTE: "FAIR" INDICATES FEW OR NO CLOUDS BELOW 12,000 FEET WITH NO
SIGNIFICANT WEATHER AND/OR OBSTRUCTIONS TO VISIBILITY.

* THESE STATIONS ARE NOT UNDER NWS QUALITY CONTROL. THEY ALSO MAY NOT
  REPORT WEATHER SUCH AS PRECIPITATION OR FOG.

ILZ001-002-007-009-015-016-024-051900-
NORTHWEST ILLINOIS

CITY           SKY/WX    TMP DP  RH WIND       PRES   REMARKS
MOLINE         MOSUNNY   81  66  60 S9G17     30.03F HX  83
6HR MIN TEMP:  65; 6HR MAX TEMP:  82;

STERLING*      MOSUNNY   82  66  57 SW6       30.05F HX  85
SAVANNA*       SUNNY     82  62  51 SW8       30.04F HX  83
$$

ILZ003-004-008-010-011-017-018-051900-
NORTH CENTRAL ILLINOIS

CITY           SKY/WX    TMP DP  RH WIND       PRES   REMARKS
ROCKFORD       MOSUNNY   81  62  52 S8        30.08F HX  82
6HR MIN TEMP:  63; 6HR MAX TEMP:  81;

FREEPORT*      PTSUNNY   78  65  64 S9        30.08F HX  80
ROCHELLE*      MOSUNNY   78  64  61 SW7       30.08S HX  80
DE KALB*       MOSUNNY   77  63  61 SW8       30.09S
PERU*          MOSUNNY   80  60  50 S9        30.07F HX  81
$$

ILZ005-006-012>014-019>023-051900-
NORTHEAST ILLINOIS

CITY           SKY/WX    TMP DP  RH WIND       PRES   REMARKS
CHICAGO-OHARE  MOSUNNY   80  60  50 S7        30.07F HX  81
6HR MIN TEMP:  64; 6HR MAX TEMP:  81;

CHICAGO-MIDWAY MOSUNNY   83  61  47 CALM      30.07F HX  83
6HR MIN TEMP:  69; 6HR MAX TEMP:  83;

AURORA         SUNNY     80  62  54 S9        30.08F HX  81
6HR MIN TEMP:  63; 6HR MAX TEMP:  81;

LANSING*       MOSUNNY   80  57  44 SW3       30.09S HX  81
JOLIET*        MOSUNNY   81  64  56 S9        30.08F HX  82
WAUKEGAN       MOSUNNY   78  62  57 SE9       30.08R HX  80
6HR MIN TEMP:  64; 6HR MAX TEMP:  79;

DUPAGE AIRPORT SUNNY     80  61  52 SE8       30.08S HX  81
6HR MIN TEMP:  63; 6HR MAX TEMP:  80;

KANKAKEE*      PTSUNNY   82  64  54 SE7       30.10S HX  84
WHEELING       MOSUNNY   81  59  47 S7        30.09S HX  81
6HR MIN TEMP:  64; 6HR MAX TEMP:  82;

MORRIS*        MOSUNNY   80  61  53 S6        30.07S HX  81
ROMEOVILLE*    SUNNY     80  59  48 S5        30.08S HX  81
NORTHERLY ISL    N/A     73  62  68 E12         N/A
$$

LMZ740>746-051900-
SOUTHERN LAKE MICHIGAN

STATION/POSITION SKY/WX   TEMP    WIND        PRES    VSBY  WAVE
                          AIR SEA DIR/SP/G                  HT/PER
                          (F)     (DEG/KT/KT) (MB)    (MI)  (FT/S)
HARRISON CRIB              70      90/ 11/ 12   N/A
BURNHAM HARBOR             74     100/ 10/ 10   N/A
CALUMET HARBOR             75      70/  7/  8   N/A
BURNS HARBOR               71      10/  6/  7 1019.3F
MICHIGAN CITY              70      20/  5/  6   N/A
MICHIGAN CITY 6N           71 67   10/  4/  6   N/A           1
ST. JOSEPH                 69 67                N/A           0
$$

ILZ025>027-034>036-040-047-049-050-058-095>099-051900-
WEST-CENTRAL ILLINOIS

CITY           SKY/WX    TMP DP  RH WIND       PRES   REMARKS
QUINCY         MOSUNNY   83  70  64 SE7       30.03F HX  87
GALESBURG*     MOSUNNY   80  66  62 S10       30.06S HX  82
MACOMB*        SUNNY     81  67  63 SE8       30.07F HX  83
JACKSONVILLE*  CLOUDY    82  67  61 CALM      30.06F HX  84
PITTSFIELD*    MOSUNNY   82  70  65 S7        30.06F HX  86
$$

ILZ028>032-037-038-041>044-048-051>054-059>061-051900-
CENTRAL ILLINOIS

CITY           SKY/WX    TMP DP  RH WIND       PRES   REMARKS
PONTIAC        SUNNY     80  65  61 S3        30.10S HX  82
BLOOMINGTON    MOSUNNY   80  65  60 S6        30.10F HX  82
DECATUR        PTSUNNY   81  64  56 S6        30.09S HX  82
PEORIA         MOSUNNY   82  65  56 S9        30.07F HX  84
6HR MIN TEMP:  67; 6HR MAX TEMP:  82;

LACON*         SUNNY     80  63  55 S7        30.05F HX  82
LINCOLN*       MOSUNNY   81  63  54 S6        30.07F HX  82
SPRINGFIELD    SUNNY     83  65  54 VRB3      30.07F HX  85
6HR MIN TEMP:  67; 6HR MAX TEMP:  84;

TAYLORVILLE    MOSUNNY   79  64  61 SW3       30.08S HX  81
$$

ILZ033-039-045-046-055>057-062-063-051900-
EAST-CENTRAL ILLINOIS

CITY           SKY/WX    TMP DP  RH WIND       PRES   REMARKS
CHAMPAIGN      PTSUNNY   79  63  57 S3        30.09F HX  80
DANVILLE*      PTSUNNY   79  67  66 SW6       30.07F HAZE    HX  81
RANTOUL*       MOSUNNY   82  64  55 S5        30.09F HX  83
MATTOON        MOSUNNY   79  65  62 CALM      30.08F HX  81
PARIS*         PTSUNNY   81  66  60 SE3       30.10S HX  83
$$

ILZ079-100>102-051900-
SOUTHWEST ILLINOIS

CITY           SKY/WX    TMP DP  RH WIND       PRES   REMARKS
BELLEVILLE     MOSUNNY   83  68  60 S8        30.06S HX  86
CAHOKIA*       MOSUNNY   83  67  58 S7        30.06F HX  85
SPARTA*        SUNNY     83  65  55 SW3       30.09S HX  84
$$

ILZ064>066-069>071-074>076-080>082-084>086-088>090-092>094-051900-
SOUTH-CENTRAL ILLINOIS

CITY           SKY/WX    TMP DP  RH WIND       PRES   REMARKS
CARBONDALE     PTSUNNY   82  64  54 VRB3      30.07F HX  83
6HR MIN TEMP:  66; 6HR MAX TEMP:  82;

CAIRO*         SUNNY     80  71  74 S3        30.09R HX  83
EFFINGHAM*     MOSUNNY   81  58  44 CALM      30.09F HX  81
MARION         MOSUNNY   82  66  57 S6        30.09R HX  85
MT. VERNON     MOSUNNY   82  64  54 NE3       30.08F HX  84
CENTRALIA*     MOSUNNY   82  62  50 CALM      30.09R HX  82
SALEM*         MOSUNNY   82  63  52 CALM      30.09R HX  83
$$

ILZ067-068-072-073-078-083-087-091-051900-
SOUTHEAST ILLINOIS

CITY           SKY/WX    TMP DP  RH WIND       PRES   REMARKS
LAWRENCEVILLE  MOSUNNY   84  68  58 E8        30.07F HX  87
FLORA*         MOSUNNY   81  65  58 CALM      30.08F HX  83
FAIRFIELD*     MOSUNNY   82  67  60 E3        30.07S HX  85
HARRISBURG*    MOSUNNY   81  66  59 CALM      30.09S HX  83
ROBINSON*      PTSUNNY   81  68  65 CALM      30.09S HX  83
CARMI*         PTSUNNY   81  65  57 CALM      30.07S HX  83
$$

ABBREVIATIONS USED IN REMARKS
   TC - TEMPERATURE IN CELSIUS
  WCI - WIND CHILL INDEX
   HX - HEAT INDEX
  VSB - VISIBILITY
$$



USA.gov is the U.S. government's official web portal to all federal, state and local government web resources and services.